Temp
-1 -1 -1 -1 -1 -2 -2 -2 -2 -2 -2 -2 -2 -2 -2 -2 -2 -2 -2 -2 -3 -3 -3 -3 -3 -3 -3 -3 -1 1 2 2 2 3 4 5 6 8
-1 -1 -1 -1 -2 -3 -3 -3 -3 -3 -3 -3 -2 -3 -3 -3 -3 -3 -3 -3 -3 -3 -3 -3 -3 -3 -3 -3 -3 -2 0 2 2 2 3 4 5 7
-1 -2 -2 -3 -4 -4 -4 -4 -4 -4 -4 -5 -4 -4 -4 -4 -4 -4 -4 -4 -4 -4 -4 -3 -3 -3 -3 -3 -4 -3 -1 0 1 2 2 3 4 5
-4 -4 -4 -5 -5 -5 -4 -4 -5 -5 -5 -5 -6 -5 -5 -4 -5 -5 -5 -5 -5 -5 -4 -4 -4 -4 -4 -4 -4 -3 -3 -1 0 1 1 2 3 4
-5 -5 -5 -4 -5 -5 -5 -6 -5 -6 -6 -6 -6 -6 -5 -5 -6 -6 -6 -6 -6 -5 -5 -5 -5 -5 -5 -4 -4 -4 -3 -3 -1 0 0 1 1 2
-7 -7 -6 -6 -6 -6 -6 -6 -6 -6 -6 -7 -6 -6 -6 -6 -6 -6 -6 -6 -6 -6 -6 -5 -6 -5 -5 -5 -4 -4 -3 -3 -3 -2 -0 0 1 1
-8 -7 -7 -6 -6 -6 -7 -7 -7 -7 -7 -7 -7 -7 -7 -7 -7 -7 -7 -7 -7 -6 -7 -6 -7 -6 -6 -5 -5 -4 -4 -4 -3 -3 -3 -1 -0 0
-8 -8 -7 -7 -7 -7 -7 -8 -8 -8 -8 -8 -8 -8 -8 -8 -8 -8 -8 -8 -8 -7 -7 -7 -7 -7 -6 -6 -5 -5 -4 -4 -4 -3 -3 -3 -2 -1
-8 -8 -8 -8 -8 -8 -8 -8 -8 -8 -8 -8 -8 -9 -9 -9 -8 -8 -8 -8 -8 -8 -8 -8 -7 -7 -6 -6 -5 -5 -5 -4 -4 -4 -4 -3 -3 -2
-9 -9 -9 -10 -10 -10 -10 -9 -9 -9 -9 -9 -9 -9 -9 -9 -9 -9 -9 -9 -8 -8 -8 -8 -7 -7 -7 -7 -6 -5 -5 -5 -5 -4 -4 -4 -3 -3
-10 -10 -11 -10 -11 -11 -11 -11 -11 -11 -10 -10 -9 -9 -9 -10 -9 -9 -9 -9 -9 -8 -8 -8 -8 -8 -7 -7 -7 -6 -5 -5 -5 -5 -4 -4 -4 -4
-12 -12 -11 -11 -11 -11 -11 -12 -12 -12 -11 -11 -11 -11 -10 -10 -10 -9 -9 -9 -9 -9 -8 -8 -8 -8 -8 -7 -7 -7 -7 -6 -5 -5 -5 -4 -4 -4
-12 -12 -12 -12 -12 -12 -12 -12 -12 -11 -11 -11 -10 -10 -10 -10 -10 -9 -9 -9 -9 -9 -9 -9 -9 -9 -9 -8 -7 -7 -7 -7 -6 -5 -5 -5 -4 -4
-13 -12 -12 -12 -12 -12 -11 -11 -11 -11 -11 -10 -10 -11 -10 -10 -10 -10 -10 -10 -10 -9 -9 -9 -9 -9 -9 -9 -9 -7 -7 -7 -7 -6 -5 -5 -4 -4
-13 -12 -12 -12 -12 -12 -12 -12 -12 -12 -11 -11 -11 -11 -11 -10 -10 -10 -10 -10 -10 -9 -9 -9 -10 -9 -9 -9 -9 -8 -7 -7 -7 -7 -5 -5 -5 -5
-12 -12 -12 -12 -12 -12 -12 -12 -12 -12 -12 -12 -12 -12 -11 -11 -11 -11 -10 -10 -10 -10 -9 -10 -10 -9 -9 -9 -9 -8 -7 -8 -7 -6 -6 -5 -5 -5
-12 -12 -12 -12 -12 -12 -12 -12 -12 -12 -12 -12 -12 -12 -12 -12 -11 -11 -11 -11 -11 -10 -10 -10 -10 -10 -9 -9 -9 -8 -7 -7 -6 -6 -6 -5 -5 -5
-12 -12 -12 -12 -13 -13 -13 -13 -13 -13 -13 -13 -13 -13 -13 -12 -12 -12 -11 -11 -11 -11 -10 -10 -10 -9 -8 -8 -8 -8 -7 -6 -5 -6 -5 -5 -5 -5
-13 -13 -13 -13 -13 -13 -13 -13 -13 -13 -13 -13 -13 -13 -13 -12 -12 -12 -12 -11 -11 -11 -10 -10 -10 -10 -10 -9 -6 -6 -5 -6 -6 -6 -5 -5 -5 -5
-13 -14 -14 -14 -14 -14 -14 -14 -14 -14 -14 -13 -13 -13 -13 -13 -12 -12 -12 -12 -12 -11 -11 -10 -10 -9 -10 -9 -7 -6 -6 -6 -5 -5 -5 -5 -5 -4
-14 -14 -14 -14 -14 -15 -14 -14 -14 -14 -14 -14 -14 -13 -13 -13 -13 -12 -12 -12 -12 -12 -11 -11 -10 -9 -8 -7 -6 -6 -6 -6 -5 -5 -5 -5 -5 -5
-15 -15 -15 -15 -15 -15 -15 -15 -15 -14 -14 -14 -14 -14 -14 -13 -13 -13 -13 -12 -12 -12 -12 -11 -10 -8 -7 -8 -7 -6 -6 -6 -5 -5 -5 -4 -4 -4
-16 -16 -16 -16 -16 -15 -15 -15 -15 -14 -14 -14 -14 -14 -14 -14 -14 -13 -13 -12 -12 -12 -12 -12 -10 -9 -8 -7 -7 -6 -7 -6 -5 -4 -4 -5 -5 -4
Height
1549 1546 1544 1541 1539 1536 1534 1531 1528 1523 1521 1521 1519 1519 1516 1514 1513 1510 1508 1506 1504 1503 1502 1500 1499 1497 1496 1494 1494 1494 1495 1496 1498 1500 1502 1503 1504 1505
1545 1542 1540 1537 1533 1531 1529 1526 1525 1521 1516 1517 1515 1513 1511 1509 1508 1506 1503 1502 1500 1499 1497 1496 1494 1492 1490 1489 1488 1486 1486 1487 1489 1491 1494 1496 1497 1497
1539 1536 1533 1529 1526 1523 1521 1519 1517 1515 1512 1510 1509 1507 1505 1504 1503 1501 1499 1497 1496 1494 1492 1490 1488 1486 1485 1483 1481 1480 1479 1480 1482 1483 1486 1489 1491 1492
1532 1528 1526 1523 1521 1519 1514 1512 1509 1509 1507 1502 1504 1503 1499 1499 1498 1496 1494 1492 1489 1487 1487 1485 1483 1479 1478 1477 1476 1474 1472 1472 1473 1476 1478 1482 1484 1487
1528 1524 1520 1517 1515 1514 1509 1506 1503 1504 1501 1498 1496 1497 1494 1493 1490 1490 1488 1486 1484 1481 1480 1477 1475 1474 1472 1471 1469 1468 1467 1465 1466 1468 1470 1473 1476 1480
1523 1519 1516 1514 1511 1508 1504 1501 1500 1498 1495 1492 1490 1491 1489 1488 1485 1483 1481 1480 1477 1476 1473 1471 1469 1467 1466 1464 1464 1463 1462 1460 1459 1459 1462 1465 1468 1472
1518 1516 1514 1511 1508 1504 1500 1497 1494 1492 1490 1488 1486 1485 1483 1481 1480 1478 1476 1474 1471 1470 1468 1465 1463 1461 1459 1458 1458 1458 1457 1455 1455 1455 1455 1457 1459 1463
1515 1513 1510 1507 1502 1498 1496 1492 1491 1489 1487 1485 1483 1480 1478 1477 1475 1472 1470 1468 1464 1465 1463 1459 1459 1455 1453 1452 1451 1451 1452 1451 1450 1450 1450 1450 1451 1453
1513 1509 1506 1502 1496 1493 1490 1488 1486 1485 1484 1482 1477 1475 1472 1471 1469 1466 1465 1462 1460 1458 1458 1451 1452 1448 1447 1446 1444 1444 1445 1445 1445 1444 1444 1444 1444 1444
1509 1505 1501 1498 1493 1488 1484 1481 1479 1478 1477 1475 1473 1469 1466 1464 1463 1462 1459 1456 1453 1451 1452 1447 1444 1442 1441 1440 1439 1437 1437 1438 1438 1437 1437 1436 1437 1437
1504 1501 1497 1494 1490 1485 1480 1475 1472 1469 1468 1466 1464 1460 1458 1457 1457 1455 1453 1451 1446 1444 1444 1443 1439 1437 1435 1433 1432 1432 1430 1428 1429 1429 1429 1429 1429 1429
1500 1497 1494 1490 1485 1481 1476 1471 1466 1463 1461 1457 1454 1451 1449 1448 1448 1449 1447 1444 1443 1439 1438 1437 1434 1433 1426 1422 1423 1423 1422 1420 1418 1419 1419 1419 1420 1421
1497 1493 1489 1485 1481 1476 1473 1469 1465 1461 1456 1453 1449 1446 1444 1443 1442 1442 1441 1439 1437 1434 1434 1433 1429 1426 1424 1415 1409 1411 1411 1410 1409 1407 1408 1410 1411 1412
1495 1490 1485 1481 1477 1473 1469 1466 1462 1457 1453 1449 1446 1444 1442 1440 1438 1436 1434 1434 1433 1431 1428 1427 1422 1420 1415 1409 1402 1399 1399 1399 1399 1397 1395 1398 1401 1402
1493 1488 1484 1479 1475 1471 1467 1463 1458 1455 1451 1447 1444 1442 1439 1437 1434 1432 1430 1428 1426 1424 1422 1420 1417 1413 1409 1403 1395 1391 1386 1383 1385 1385 1385 1386 1389 1392
1490 1486 1481 1478 1474 1470 1465 1460 1457 1453 1449 1446 1442 1439 1436 1433 1431 1428 1425 1423 1420 1417 1416 1413 1409 1406 1400 1395 1388 1379 1378 1374 1372 1372 1374 1375 1378 1382
1488 1484 1481 1476 1471 1467 1463 1459 1455 1451 1447 1444 1440 1436 1433 1430 1428 1425 1422 1420 1416 1412 1408 1405 1401 1396 1390 1384 1376 1370 1364 1363 1362 1362 1365 1366 1369 1372
1489 1485 1480 1476 1471 1466 1461 1457 1453 1449 1446 1441 1438 1435 1431 1428 1425 1423 1420 1417 1414 1409 1404 1400 1393 1385 1377 1368 1366 1357 1354 1353 1354 1356 1358 1359 1361 1364
1489 1484 1480 1475 1471 1466 1461 1457 1451 1448 1444 1440 1436 1432 1429 1426 1423 1420 1418 1415 1411 1406 1401 1396 1389 1382 1372 1362 1351 1352 1347 1346 1347 1348 1350 1352 1355 1359
1488 1484 1479 1474 1470 1465 1460 1455 1450 1445 1441 1438 1434 1431 1427 1424 1421 1418 1415 1412 1408 1404 1398 1393 1386 1378 1371 1361 1350 1346 1345 1343 1342 1343 1346 1348 1351 1354
1486 1482 1478 1473 1468 1464 1459 1454 1449 1444 1440 1436 1432 1428 1425 1422 1419 1416 1413 1410 1407 1403 1396 1390 1384 1376 1366 1357 1350 1344 1341 1340 1340 1342 1344 1346 1347 1350
1485 1481 1476 1471 1467 1463 1458 1453 1447 1443 1438 1434 1430 1426 1422 1419 1416 1413 1411 1408 1405 1401 1397 1390 1383 1375 1366 1358 1350 1343 1340 1340 1342 1342 1342 1343 1343 1342
1484 1479 1474 1470 1466 1461 1457 1451 1446 1441 1436 1432 1427 1422 1418 1414 1412 1411 1409 1406 1403 1399 1396 1389 1383 1377 1369 1362 1354 1349 1344 1343 1343 1341 1339 1339 1339 1339
Wind_Speed
21 25 21 20 22 24 22 23 23 25 22 24 25 20 22 23 22 27 28 29 26 27 27 26 26 25 25 25 26 28 29 27 25 23 24 23 22 25
26 24 26 28 28 25 25 23 24 24 29 24 21 23 23 23 25 26 26 26 26 26 25 22 24 27 30 32 33 30 32 31 30 27 25 24 24 25
24 20 22 23 27 26 26 26 25 25 25 26 24 22 23 27 31 30 29 29 26 25 26 25 27 29 30 30 26 28 28 32 32 31 28 26 25 25
22 24 29 28 28 30 28 27 28 25 24 26 24 22 23 27 32 35 33 32 29 28 25 25 25 19 19 22 26 25 26 27 33 33 31 28 27 27
34 38 42 43 33 29 30 30 30 30 28 27 21 24 26 31 27 27 29 30 30 25 24 27 27 25 24 24 25 23 19 19 25 30 32 30 28 27
34 28 22 25 27 29 27 26 25 25 26 26 22 24 22 24 26 28 30 28 28 24 28 31 30 29 25 24 24 19 19 15 17 21 28 31 30 28
23 23 26 25 23 20 24 24 23 24 20 20 23 25 28 26 25 28 28 28 30 29 28 26 25 27 27 24 21 18 20 16 16 17 19 25 29 30
25 25 24 22 25 25 21 21 19 21 24 24 26 27 26 25 30 32 32 32 28 27 23 30 28 31 33 28 21 20 25 19 20 22 23 25 26 29
24 24 25 24 27 26 27 29 28 21 22 25 26 26 26 26 27 29 26 25 28 34 34 37 36 31 28 26 24 24 23 22 20 18 22 25 29 31
21 23 24 25 28 30 30 30 30 27 24 24 25 30 32 32 29 26 26 27 31 34 31 30 31 31 28 24 22 22 23 21 23 25 27 27 26 29
24 25 23 24 25 29 33 36 36 37 35 31 32 36 36 31 25 28 30 31 35 36 33 28 32 29 25 26 25 24 26 27 26 26 27 28 27 25
25 22 22 22 27 30 34 35 32 28 28 31 32 32 32 34 29 27 27 28 29 31 30 21 23 24 32 36 30 33 32 31 32 31 28 30 28 28
26 27 26 28 30 24 21 23 24 28 27 24 19 20 21 19 21 22 21 22 21 23 24 24 29 32 34 43 46 39 37 36 35 33 33 32 30 28
26 27 28 19 25 25 23 24 25 24 24 27 25 23 22 19 21 23 18 17 21 27 30 29 31 30 35 40 45 43 39 38 36 36 35 32 32 31
25 22 21 23 26 26 25 24 23 23 24 25 24 22 22 24 24 24 23 22 22 23 25 24 26 31 32 35 41 43 44 42 39 35 34 32 32 32
23 23 25 27 24 24 25 24 23 22 22 23 23 24 24 24 21 21 19 22 25 24 22 24 26 27 31 33 37 43 39 41 37 34 26 29 30 29
24 25 27 27 28 27 26 25 24 23 23 24 25 23 21 21 21 22 22 23 23 26 29 29 29 28 30 33 37 34 36 33 29 24 25 30 27 28
23 24 26 27 28 29 28 27 25 24 24 24 23 23 22 21 22 21 19 21 24 26 29 32 33 34 39 39 29 30 26 27 24 21 23 26 28 26
22 24 25 26 28 27 27 28 28 25 23 23 24 23 22 21 21 21 21 21 24 26 28 29 32 36 39 40 38 20 16 20 21 21 23 24 25 23
23 23 25 26 27 26 26 28 28 25 23 23 23 22 22 21 21 21 20 22 24 26 28 29 31 34 41 42 38 23 15 11 8 12 13 18 20 22
24 25 25 26 25 25 26 28 28 26 25 25 23 22 21 21 21 21 21 21 22 22 27 31 30 31 34 35 29 16 10 5 2 7 10 15 13 15
23 25 25 23 24 24 27 28 28 27 27 27 26 25 23 21 20 19 20 20 20 21 24 28 25 28 32 36 32 16 7 3 7 7 8 9 13 12
25 25 24 23 23 25 28 29 28 27 28 31 31 29 24 21 17 15 16 19 18 20 21 26 22 24 29 31 33 20 11 1 3 6 6 6 12 12
Wind_Direction
298 300 296 291 287 295 286 288 290 296 298 303 305 309 309 313 307 311 311 309 309 307 308 306 310 306 305 302 274 261 258 262 259 256 257 258 266 256
306 303 297 295 295 285 286 292 290 293 298 299 297 304 307 311 318 311 315 316 313 311 317 308 303 303 303 303 301 287 261 256 258 259 255 257 258 262
311 313 313 314 302 298 293 290 288 287 294 299 295 297 302 303 309 316 314 310 307 301 303 302 304 300 303 303 300 297 280 258 253 255 256 254 255 255
325 312 312 320 323 322 306 303 294 293 298 294 299 299 307 302 299 301 305 298 298 297 298 299 303 304 301 300 306 308 297 268 253 251 252 251 250 251
311 309 306 307 313 316 312 317 316 307 298 283 293 301 303 307 305 302 302 299 297 298 295 295 297 300 301 294 295 295 302 297 267 252 249 249 246 246
319 317 321 322 318 317 314 315 314 310 302 304 301 300 303 304 306 306 305 301 302 302 293 295 295 294 293 296 288 305 298 293 276 257 248 248 247 243
334 331 325 315 319 318 323 320 313 315 305 301 298 302 301 309 307 307 305 302 300 295 303 306 307 305 296 296 284 285 304 290 280 291 274 253 247 244
331 329 327 330 319 317 312 314 324 321 317 316 309 306 302 301 301 302 301 301 302 299 313 301 307 303 295 291 286 285 294 293 286 289 284 276 261 248
325 328 330 328 325 318 312 308 309 307 305 308 303 302 300 302 304 301 301 305 299 299 303 299 300 297 296 294 287 283 283 281 280 279 280 276 274 258
315 315 317 322 321 319 317 314 309 301 293 296 299 301 295 298 298 297 303 298 295 298 303 296 301 298 304 301 293 284 285 283 285 284 281 276 272 272
313 311 317 314 319 316 316 312 310 307 307 300 281 280 286 288 291 299 296 297 297 300 303 295 299 300 300 294 293 288 279 277 279 282 277 278 273 271
333 334 325 321 311 309 311 314 315 317 311 310 303 295 289 286 289 282 285 283 285 291 300 295 301 309 309 294 294 290 289 278 273 266 267 266 268 268
334 332 326 317 319 329 330 326 323 322 319 322 327 326 325 316 308 296 291 284 287 294 309 311 303 299 297 296 292 292 294 292 289 277 266 267 257 258
331 326 326 347 339 336 333 328 323 320 323 328 323 321 316 327 318 321 318 302 295 293 295 295 295 296 294 294 293 294 293 291 287 280 274 269 261 258
338 345 348 348 343 340 335 330 329 328 326 324 321 321 316 311 312 312 306 303 299 298 301 303 297 293 292 294 294 295 296 294 289 278 265 263 257 250
353 356 355 347 343 341 341 341 337 333 331 327 322 319 318 315 324 317 312 317 314 310 310 310 306 304 300 292 291 292 292 283 287 275 259 258 258 249
350 354 347 346 345 344 342 340 339 339 337 332 330 329 327 324 318 316 320 316 316 319 319 320 317 313 312 311 301 297 293 281 278 268 248 254 254 246
350 344 343 345 345 343 343 341 341 339 337 335 335 335 329 325 323 323 320 322 319 321 321 323 323 327 331 328 309 293 284 271 273 256 249 250 248 243
348 343 343 343 341 342 342 342 337 335 333 335 333 333 331 330 326 323 323 322 322 322 323 328 328 331 321 318 342 339 286 274 265 251 245 242 240 236
345 343 341 340 340 340 342 340 339 337 336 333 333 333 333 328 327 324 320 325 324 325 326 330 334 340 333 322 324 318 306 290 264 232 226 228 234 239
345 344 341 339 341 342 343 340 339 341 339 337 334 330 330 329 325 324 319 319 322 327 327 330 336 350 0 2 351 333 294 291 133 216 224 221 228 236
343 338 338 340 342 345 342 339 338 338 339 341 337 332 325 320 318 319 323 324 325 326 327 326 345 0 8 7 360 5 349 252 223 250 241 238 228 237
339 337 340 343 345 345 340 340 339 340 342 337 331 329 327 321 313 312 320 324 322 324 330 330 354 8 11 16 28 31 29 108 264 294 256 212 208 234